period_start,C,m1,H,J0,J1,J2,J3,J4,J5,JA,JB,JC,JD,JJ,JK,JN,#
2014-03-19 00:00:36,0.13,1.16,0.00,23.95,29.15,31.97,5.98,32.17,1014.09,2033.77,3013.22,2976.36,3239.89,349.43,321.80,5.22,0000 0000 0000 0000 000000
2014-03-19 00:01:37,0.19,1.16,0.00,23.95,29.15,31.99,5.98,32.21,1014.08,2033.80,3012.84,2976.13,3239.38,350.18,322.19,5.23,0000 0000 0000 0000 000000
2014-03-19 00:02:37,0.21,1.16,0.00,23.95,29.15,32.00,6.12,32.46,1014.06,2033.78,3012.33,2975.99,3239.14,350.42,323.03,5.23,0000 0000 0000 0000 000000
2014-03-19 00:03:37,0.12,1.16,0.00,23.94,29.15,32.00,5.84,32.08,1013.95,2033.75,3012.11,2975.68,3239.01,349.56,321.42,5.24,0000 0000 0000 0000 000000
2014-03-19 00:04:38,0.13,1.16,0.00,23.94,29.15,31.99,6.17,32.13,1013.91,2033.79,3011.69,2975.28,3238.67,350.50,322.62,5.24,0000 0000 0000 0000 000000
2014-03-19 00:05:38,0.21,1.16,0.00,23.93,29.15,31.97,6.02,32.25,1013.85,2033.84,3011.26,2975.10,3238.28,349.79,321.96,5.25,0000 0000 0000 0000 000000
2014-03-19 00:06:38,0.20,1.16,0.00,23.93,29.15,31.97,5.96,32.04,1013.76,2033.89,3011.02,2974.93,3238.10,351.03,322.70,5.26,0000 0000 0000 0000 000000
2014-03-19 00:07:39,0.17,1.17,0.00,23.93,29.15,31.99,5.94,32.25,1013.76,2033.92,3010.50,2974.53,3237.91,349.46,321.55,5.26,0000 0000 0000 0000 000000
2014-03-19 00:08:39,0.20,1.17,0.00,23.93,29.15,31.99,5.93,32.04,1013.78,2033.92,3010.18,2974.20,3237.42,349.81,321.87,5.27,0000 0000 0000 0000 000000
2014-03-19 00:09:39,0.18,1.17,0.00,23.94,29.15,31.99,5.89,32.38,1013.75,2033.92,3009.83,2974.05,3237.15,349.23,321.21,5.27,0000 0000 0000 0000 000000
2014-03-19 00:10:39,0.14,1.17,0.00,23.94,29.15,31.97,5.95,32.17,1013.75,2033.93,3009.32,2973.86,3237.00,349.51,321.58,5.28,0000 0000 0000 0000 000000
2014-03-19 00:11:40,0.18,1.17,0.00,23.93,29.15,32.00,5.85,32.00,1013.76,2033.95,3009.07,2973.39,3236.66,349.39,321.49,5.28,0000 0000 0000 0000 000000
2014-03-19 00:12:40,0.18,1.17,0.00,23.92,29.15,31.98,6.02,32.17,1013.74,2033.96,3008.62,2973.15,3236.27,350.60,322.89,5.29,0000 0000 0000 0000 000000
2014-03-19 00:13:40,0.18,1.17,0.00,23.92,29.15,31.98,6.06,32.29,1013.74,2033.96,3008.23,2973.04,3236.08,350.05,322.08,5.30,0000 0000 0000 0000 000000
2014-03-19 00:14:41,0.12,1.17,0.00,23.92,29.14,31.94,5.96,32.13,1013.71,2033.98,3008.00,2972.80,3235.87,350.00,322.03,5.30,0000 0000 0000 0000 000000
2014-03-19 00:15:41,0.18,1.17,0.00,23.92,29.14,31.98,5.99,32.13,1013.72,2033.99,3007.48,2972.32,3235.38,349.63,321.70,5.31,0000 0000 0000 0000 000000
2014-03-19 00:16:41,0.23,1.17,0.00,23.92,29.14,32.01,5.98,32.08,1013.72,2033.99,3007.18,2972.12,3235.14,349.45,321.74,5.31,0000 0000 0000 0000 000000
2014-03-19 00:17:41,0.12,1.18,0.00,23.91,29.13,31.98,6.04,32.08,1013.72,2033.98,3007.03,2972.03,3235.03,350.34,322.37,5.32,0000 0000 0000 0000 000000
2014-03-19 00:18:42,0.09,1.18,0.00,23.90,29.13,31.98,6.08,32.08,1013.70,2033.98,3006.52,2971.71,3234.65,350.55,322.57,5.33,0000 0000 0000 0000 000000
2014-03-19 00:19:42,0.20,1.18,0.00,23.90,29.13,31.94,5.98,32.42,1013.70,2033.98,3006.17,2971.28,3234.25,350.15,322.20,5.33,0000 0000 0000 0000 000000
2014-03-19 00:20:42,0.20,1.18,0.00,23.90,29.13,31.93,5.98,32.29,1013.69,2033.96,3005.81,2971.09,3234.07,349.74,321.97,5.34,0000 0000 0000 0000 000000
2014-03-19 00:21:42,0.13,1.18,0.00,23.91,29.12,31.97,5.99,32.08,1013.71,2033.97,3005.30,2971.01,3233.92,349.60,321.68,5.34,0000 0000 0000 0000 000000
2014-03-19 00:22:43,0.13,1.18,0.00,23.92,29.12,31.98,6.02,32.29,1013.70,2033.98,3005.11,2970.63,3233.47,349.70,321.76,5.35,0000 0000 0000 0000 000000
2014-03-19 00:23:43,0.18,1.18,0.00,23.92,29.12,31.96,6.20,32.42,1013.70,2033.98,3004.68,2970.23,3233.17,349.30,321.39,5.36,0000 0000 0000 0000 000000
2014-03-19 00:24:43,0.20,1.18,0.00,23.92,29.12,31.94,5.88,32.13,1013.70,2033.98,3004.24,2970.07,3232.99,350.20,321.78,5.36,0000 0000 0000 0000 000000
2014-03-19 00:25:44,0.14,1.18,0.00,23.92,29.12,31.93,6.18,32.29,1013.71,2033.98,3003.99,2969.83,3232.51,350.26,322.27,5.37,0000 0000 0000 0000 000000
2014-03-19 00:26:44,0.21,1.19,0.00,23.92,29.12,31.96,6.13,32.13,1013.71,2033.99,3003.43,2969.36,3232.19,350.03,322.06,5.37,0000 0000 0000 0000 000000
2014-03-19 00:27:44,0.20,1.19,0.00,23.92,29.12,31.94,6.26,32.21,1013.69,2033.98,3003.13,2969.13,3232.05,350.91,322.87,5.38,0000 0000 0000 0000 000000
2014-03-19 00:28:45,0.11,1.19,0.00,23.92,29.12,31.91,6.13,32.17,1013.69,2033.97,3002.62,2968.97,3231.61,350.26,322.27,5.38,0000 0000 0000 0000 000000
2014-03-19 00:29:45,0.19,1.19,0.00,23.93,29.12,31.97,6.15,32.29,1013.69,2033.97,3002.22,2968.51,3231.22,350.71,322.68,5.39,0000 0000 0000 0000 000000
2014-03-19 00:30:45,0.21,1.19,0.00,23.92,29.12,31.95,5.85,32.17,1013.69,2033.98,3001.90,2968.19,3231.07,349.00,321.51,5.40,0000 0000 0000 0000 000000
2014-03-19 00:31:45,0.16,1.19,0.00,23.92,29.12,31.97,6.11,32.33,1013.69,2033.96,3001.36,2968.06,3230.65,350.87,322.83,5.40,0000 0000 0000 0000 000000
2014-03-19 00:32:45,0.16,1.19,0.00,23.92,29.12,31.92,6.00,32.17,1013.69,2033.96,3001.10,2967.83,3230.25,350.38,322.13,5.41,0000 0000 0000 0000 000000
2014-03-19 00:33:46,0.16,1.19,0.00,23.92,29.12,31.95,5.92,32.29,1013.69,2033.97,3000.64,2967.41,3230.08,349.22,321.32,5.41,0000 0000 0000 0000 000000
2014-03-19 00:34:46,0.19,1.19,0.00,23.92,29.12,31.95,5.98,32.25,1013.69,2033.98,3000.24,2967.15,3229.91,350.43,322.63,5.42,0000 0000 0000 0000 000000
2014-03-19 00:35:46,0.14,1.19,0.00,23.92,29.12,31.94,5.99,32.17,1013.69,2033.98,3000.01,2967.04,3229.47,349.89,321.55,5.43,0000 0000 0000 0000 000000
2014-03-19 00:36:46,0.14,1.20,0.00,23.92,29.12,31.90,6.13,32.17,1013.68,2033.98,2999.50,2966.79,3229.17,350.95,322.91,5.43,0000 0000 0000 0000 000000
2014-03-19 00:37:47,0.19,1.20,0.00,23.92,29.12,31.89,5.98,32.33,1013.69,2033.98,2999.17,2966.36,3229.03,349.90,321.76,5.44,0000 0000 0000 0000 000000
2014-03-19 00:38:47,0.15,1.20,0.00,23.93,29.11,31.94,6.18,32.13,1013.68,2033.98,2998.81,2966.13,3228.69,350.48,322.52,5.44,0000 0000 0000 0000 000000
2014-03-19 00:39:47,0.18,1.20,0.00,23.94,29.11,31.95,5.96,32.08,1013.67,2033.99,2998.30,2965.97,3228.27,349.38,321.44,5.45,0000 0000 0000 0000 000000
2014-03-19 00:40:47,0.18,1.20,0.00,23.94,29.10,31.92,5.87,32.04,1013.67,2033.98,2998.06,2965.48,3228.08,348.85,320.94,5.45,0000 0000 0000 0000 000000
2014-03-19 00:41:48,0.17,1.20,0.00,23.95,29.10,31.91,6.00,32.21,1013.66,2033.99,2997.58,2965.17,3227.87,350.26,321.89,5.46,0000 0000 0000 0000 000000
2014-03-19 00:42:48,0.17,1.20,0.00,23.95,29.10,31.92,6.18,32.08,1013.68,2033.98,2997.21,2965.05,3227.40,349.74,321.90,5.47,0000 0000 0000 0000 000000
2014-03-19 00:43:48,0.14,1.20,0.00,23.95,29.10,31.94,6.07,32.13,1013.68,2033.99,2996.95,2964.87,3227.14,350.14,322.51,5.47,0000 0000 0000 0000 000000
2014-03-19 00:44:49,0.16,1.20,0.00,23.94,29.10,31.95,5.92,32.00,1013.63,2033.99,2996.42,2964.45,3226.99,349.20,321.25,5.48,0000 0000 0000 0000 000000
2014-03-19 00:45:49,0.18,1.20,0.00,23.94,29.10,31.95,6.00,32.33,1013.54,2033.99,2996.13,2964.17,3226.60,350.43,322.06,5.48,0000 0000 0000 0000 000000
2014-03-19 00:46:49,0.17,1.21,0.00,23.94,29.10,31.94,5.97,32.13,1013.56,2033.99,2995.63,2964.05,3226.22,350.10,322.06,5.49,0000 0000 0000 0000 000000
2014-03-19 00:47:49,0.15,1.21,0.00,23.95,29.10,31.93,6.00,32.17,1013.49,2033.99,2995.22,2963.80,3226.07,350.25,322.17,5.50,0000 0000 0000 0000 000000
2014-03-19 00:48:50,0.16,1.21,0.00,23.94,29.10,31.94,6.08,32.08,1013.45,2033.99,2995.03,2963.33,3225.82,350.58,322.46,5.50,0000 0000 0000 0000 000000
2014-03-19 00:49:50,0.17,1.21,0.00,23.95,29.10,31.94,6.05,32.00,1013.48,2033.99,2994.59,2963.12,3225.41,349.99,321.93,5.51,0000 0000 0000 0000 000000
2014-03-19 00:50:50,0.16,1.21,0.00,23.95,29.10,31.94,5.78,32.08,1013.35,2033.99,2994.22,2963.02,3225.15,349.63,321.54,5.51,0000 0000 0000 0000 000000
2014-03-19 00:51:50,0.11,1.21,0.00,23.95,29.10,31.94,6.01,32.17,1013.32,2033.99,2993.95,2962.79,3225.04,350.30,322.11,5.52,0000 0000 0000 0000 000000
2014-03-19 00:52:51,0.14,1.21,0.00,23.95,29.10,31.93,5.98,32.00,1013.24,2033.99,2993.42,2962.38,3224.69,350.09,321.95,5.52,0000 0000 0000 0000 000000
2014-03-19 00:53:51,0.21,1.21,0.00,23.95,29.10,31.94,5.99,32.08,1013.27,2033.99,2993.13,2962.13,3224.31,349.64,321.40,5.53,0000 0000 0000 0000 000000
2014-03-19 00:54:51,0.16,1.21,0.00,23.97,29.10,31.95,6.05,32.21,1013.22,2033.99,2992.72,2962.02,3224.11,350.04,321.72,5.54,0000 0000 0000 0000 000000
2014-03-19 00:55:52,0.13,1.21,0.00,23.96,29.10,31.92,6.05,32.17,1013.23,2033.99,2992.28,2961.61,3223.86,350.12,321.95,5.54,0000 0000 0000 0000 000000
2014-03-19 00:56:52,0.20,1.22,0.00,23.95,29.10,31.92,5.90,31.96,1013.25,2033.99,2992.06,2961.24,3223.38,349.57,321.46,5.55,0000 0000 0000 0000 000000
2014-03-19 00:57:52,0.18,1.22,0.00,23.95,29.10,31.90,5.94,32.21,1013.23,2033.99,2991.59,2961.08,3223.14,350.22,322.06,5.55,0000 0000 0000 0000 000000
2014-03-19 00:58:52,0.14,1.22,0.00,23.95,29.10,31.93,5.88,32.00,1013.24,2033.99,2991.22,2961.00,3223.03,350.08,321.93,5.56,0000 0000 0000 0000 000000
2014-03-19 00:59:52,0.08,1.22,0.00,23.95,29.10,31.92,6.06,32.04,1013.25,2033.99,2990.98,2960.62,3222.71,350.30,321.84,5.57,0000 0000 0000 0000 000000
2014-03-19 01:00:53,0.20,1.22,0.00,23.95,29.10,31.92,6.08,32.33,1013.23,2033.99,2990.44,2960.24,3222.28,350.47,321.79,5.57,0000 0000 0000 0000 000000
2014-03-19 01:01:53,0.21,1.22,0.00,23.95,29.10,31.94,6.08,32.13,1013.24,2033.99,2990.14,2960.08,3222.10,349.47,321.14,5.58,0000 0000 0000 0000 000000
2014-03-19 01:02:53,0.11,1.22,0.00,23.95,29.10,31.92,5.97,32.21,1013.22,2033.99,2989.74,2959.97,3221.90,349.60,321.35,5.58,0000 0000 0000 0000 000000
2014-03-19 01:03:53,0.13,1.22,0.00,23.95,29.10,31.93,5.88,32.00,1013.23,2033.99,2989.29,2959.64,3221.47,349.60,321.49,5.59,0000 0000 0000 0000 000000
2014-03-19 01:04:54,0.20,1.22,0.00,23.95,29.10,31.89,5.93,32.13,1013.22,2033.99,2989.09,2959.26,3221.18,350.75,322.54,5.60,0000 0000 0000 0000 000000
2014-03-19 01:05:54,0.14,1.22,0.00,23.96,29.09,31.92,6.02,32.29,1013.21,2033.99,2988.65,2959.09,3221.05,349.92,321.76,5.60,0000 0000 0000 0000 000000
2014-03-19 01:06:54,0.13,1.22,0.00,23.97,29.09,31.93,5.92,32.08,1013.23,2033.99,2988.24,2958.95,3220.81,349.98,321.82,5.61,0000 0000 0000 0000 000000
2014-03-19 01:07:54,0.15,1.23,0.00,23.97,29.09,31.94,5.90,32.17,1013.22,2033.99,2988.03,2958.50,3220.33,349.47,321.34,5.61,0000 0000 0000 0000 000000
2014-03-19 01:08:55,0.21,1.23,0.00,23.97,29.09,31.94,5.98,32.17,1013.21,2033.99,2987.52,2958.19,3220.12,349.69,321.54,5.62,0000 0000 0000 0000 000000
2014-03-19 01:09:55,0.16,1.23,0.00,23.97,29.09,31.90,6.05,32.17,1013.21,2033.98,2987.18,2958.04,3219.93,349.76,321.60,5.62,0000 0000 0000 0000 000000
2014-03-19 01:10:55,0.12,1.23,0.00,23.98,29.08,31.91,5.86,31.92,1013.21,2033.99,2986.90,2957.86,3219.51,349.48,321.13,5.63,0000 0000 0000 0000 000000
2014-03-19 01:11:55,0.19,1.23,0.00,23.99,29.08,31.91,5.88,32.00,1013.20,2033.99,2986.38,2957.41,3219.18,349.46,321.46,5.64,0000 0000 0000 0000 000000
2014-03-19 01:12:55,0.20,1.23,0.00,24.00,29.08,31.93,5.86,32.08,1013.21,2033.99,2986.13,2957.16,3219.06,349.58,321.41,5.64,0000 0000 0000 0000 000000
2014-03-19 01:13:56,0.11,1.23,0.00,24.00,29.08,31.91,5.89,31.92,1013.20,2033.99,2985.80,2957.04,3218.70,349.40,321.24,5.65,0000 0000 0000 0000 000000
2014-03-19 01:14:56,0.16,1.23,0.00,24.00,29.08,31.90,5.89,32.04,1013.20,2033.99,2985.30,2956.85,3218.29,349.73,321.41,5.65,0000 0000 0000 0000 000000
2014-03-19 01:15:56,0.17,1.23,0.00,24.01,29.08,31.90,5.98,32.17,1013.20,2033.99,2985.09,2956.45,3218.11,349.71,321.55,5.66,0000 0000 0000 0000 000000
2014-03-19 01:16:56,0.15,1.23,0.00,24.01,29.08,31.92,6.07,32.29,1013.19,2033.99,2984.70,2956.16,3217.98,350.31,322.47,5.67,0000 0000 0000 0000 000000
2014-03-19 01:17:57,0.16,1.23,0.00,24.01,29.07,31.92,6.10,32.13,1013.19,2033.99,2984.26,2956.05,3217.71,349.72,321.49,5.67,0000 0000 0000 0000 000000
2014-03-19 01:18:57,0.13,1.24,0.00,24.00,29.07,31.93,6.00,32.13,1013.19,2033.99,2984.06,2955.82,3217.29,349.71,321.51,5.68,0000 0000 0000 0000 000000
2014-03-19 01:19:57,0.15,1.24,0.00,24.00,29.07,31.94,5.77,31.96,1013.19,2033.99,2983.63,2955.38,3217.09,349.45,321.28,5.68,0000 0000 0000 0000 000000
2014-03-19 01:20:57,0.20,1.24,0.00,24.00,29.07,31.94,6.00,32.29,1013.19,2033.99,2983.22,2955.14,3216.87,350.24,321.56,5.69,0000 0000 0000 0000 000000
2014-03-19 01:21:57,0.15,1.24,0.00,24.00,29.07,31.91,6.06,32.13,1013.19,2033.99,2982.91,2955.03,3216.40,349.81,321.61,5.69,0000 0000 0000 0000 000000
2014-03-19 01:22:57,0.13,1.24,0.00,24.01,29.07,31.93,5.94,31.96,1013.14,2033.99,2982.40,2954.68,3216.14,349.88,321.65,5.70,0000 0000 0000 0000 000000
2014-03-19 01:23:58,0.20,1.24,0.00,24.00,29.07,31.91,5.95,32.17,1013.11,2033.99,2982.13,2954.30,3216.03,350.55,322.13,5.71,0000 0000 0000 0000 000000
2014-03-19 01:24:58,0.13,1.24,0.00,24.01,29.07,31.91,5.93,32.17,1013.02,2033.99,2981.83,2954.11,3215.66,350.11,321.92,5.71,0000 0000 0000 0000 000000
2014-03-19 01:25:58,0.17,1.24,0.00,24.02,29.07,31.91,5.94,32.17,1012.97,2033.99,2981.32,2954.03,3215.26,349.60,321.10,5.72,0000 0000 0000 0000 000000
2014-03-19 01:26:58,0.13,1.24,0.00,24.02,29.07,31.91,6.02,32.00,1012.88,2033.99,2981.08,2953.70,3215.09,349.46,321.17,5.72,0000 0000 0000 0000 000000
2014-03-19 01:27:58,0.15,1.24,0.00,24.02,29.07,31.93,6.17,32.17,1012.76,2033.99,2980.62,2953.27,3214.92,351.01,322.56,5.73,0000 0000 0000 0000 000000
2014-03-19 01:28:59,0.20,1.25,0.00,24.02,29.07,31.93,5.84,31.92,1012.73,2033.99,2980.23,2953.10,3214.50,349.83,321.47,5.74,0000 0000 0000 0000 000000
2014-03-19 01:29:59,0.15,1.25,0.00,24.02,29.07,31.89,5.92,31.96,1012.74,2033.99,2979.96,2952.95,3214.18,349.64,321.29,5.74,0000 0000 0000 0000 000000
2014-03-19 01:30:59,0.14,1.25,0.00,24.02,29.07,31.93,5.99,32.04,1012.72,2033.99,2979.43,2952.49,3213.95,349.56,321.20,5.75,0000 0000 0000 0000 000000
2014-03-19 01:31:59,0.22,1.25,0.00,24.02,29.07,31.92,5.84,32.04,1012.73,2033.99,2979.16,2952.18,3213.44,349.77,321.41,5.75,0000 0000 0000 0000 000000
2014-03-19 01:33:00,0.17,1.25,0.00,24.02,29.07,31.90,5.90,31.92,1012.71,2033.99,2978.91,2952.07,3213.16,349.36,321.02,5.76,0000 0000 0000 0000 000000
2014-03-19 01:34:00,0.11,1.25,0.00,24.04,29.07,31.90,5.84,31.96,1012.72,2033.99,2978.38,2951.94,3213.05,349.18,320.82,5.77,0000 0000 0000 0000 000000
2014-03-19 01:35:00,0.13,1.25,0.00,24.05,29.07,31.91,6.02,32.08,1012.71,2033.99,2978.12,2951.50,3212.85,349.78,321.71,5.77,0000 0000 0000 0000 000000
2014-03-19 01:36:00,0.19,1.25,0.00,24.06,29.07,31.90,6.09,32.00,1012.71,2033.99,2977.73,2951.18,3212.37,349.79,321.39,5.78,0000 0000 0000 0000 000000
2014-03-19 01:37:00,0.19,1.25,0.00,24.07,29.07,31.92,5.92,32.00,1012.71,2033.99,2977.29,2951.06,3212.14,349.49,321.09,5.78,0000 0000 0000 0000 000000
2014-03-19 01:38:01,0.11,1.25,0.00,24.07,29.07,31.93,6.05,32.04,1012.71,2033.99,2977.09,2950.92,3212.03,350.87,322.35,5.79,0000 0000 0000 0000 000000
2014-03-19 01:39:01,0.09,1.25,0.00,24.07,29.07,31.93,5.98,32.17,1012.71,2033.99,2976.68,2950.50,3211.82,349.94,321.51,5.79,0000 0000 0000 0000 000000
2014-03-19 01:40:01,0.20,1.26,0.00,24.08,29.07,31.91,5.97,31.92,1012.71,2033.99,2976.29,2950.18,3211.47,350.15,321.84,5.80,0000 0000 0000 0000 000000
2014-03-19 01:41:01,0.19,1.26,0.00,24.08,29.07,31.92,6.13,32.29,1012.71,2033.99,2976.08,2950.06,3211.18,350.84,322.32,5.81,0000 0000 0000 0000 000000
2014-03-19 01:42:02,0.10,1.26,0.00,24.07,29.07,31.93,6.01,32.13,1012.71,2033.99,2975.62,2949.92,3211.03,350.50,322.01,5.81,0000 0000 0000 0000 000000
2014-03-19 01:43:02,0.12,1.26,0.00,24.07,29.07,31.94,6.04,31.92,1012.71,2033.99,2975.23,2949.50,3210.64,349.79,321.36,5.82,0000 0000 0000 0000 000000
2014-03-19 01:44:02,0.23,1.26,0.00,24.07,29.07,31.93,5.93,31.96,1012.71,2033.99,2974.94,2949.19,3210.24,349.12,320.75,5.82,0000 0000 0000 0000 000000
2014-03-19 01:45:02,0.18,1.26,0.00,24.07,29.08,31.91,6.13,32.13,1012.71,2033.99,2974.39,2949.04,3210.08,350.08,321.38,5.83,0000 0000 0000 0000 000000
2014-03-19 01:46:03,0.13,1.26,0.00,24.08,29.08,31.92,6.14,32.17,1012.71,2033.99,2974.13,2948.86,3209.85,351.46,322.93,5.84,0000 0000 0000 0000 000000
2014-03-19 01:47:03,0.14,1.26,0.00,24.09,29.08,31.93,5.97,32.04,1012.71,2033.99,2973.76,2948.37,3209.36,349.96,321.41,5.84,0000 0000 0000 0000 000000
2014-03-19 01:48:03,0.24,1.26,0.00,24.09,29.08,31.91,6.05,32.00,1012.71,2033.99,2973.29,2948.14,3209.13,350.87,321.72,5.85,0000 0000 0000 0000 000000
2014-03-19 01:49:03,0.15,1.26,0.00,24.10,29.08,31.93,6.06,31.96,1012.70,2033.99,2973.06,2948.03,3208.98,350.98,322.42,5.85,0000 0000 0000 0000 000000
2014-03-19 01:50:04,0.07,1.26,0.00,24.11,29.09,31.94,5.91,32.17,1012.71,2033.99,2972.54,2947.67,3208.53,348.98,320.58,5.86,0000 0000 0000 0000 000000
2014-03-19 01:51:04,0.30,1.27,0.00,24.12,29.09,31.92,6.07,32.08,1012.71,2033.99,2972.18,2947.26,3208.19,350.63,322.09,5.86,0000 0000 0000 0000 000000
2014-03-19 01:52:04,0.17,1.27,0.00,24.14,29.09,31.91,5.83,31.92,1012.71,2033.99,2971.94,2947.09,3208.05,350.04,321.53,5.87,0000 0000 0000 0000 000000
2014-03-19 01:53:04,0.08,1.27,0.00,24.15,29.09,31.92,5.92,31.96,1012.70,2033.99,2971.43,2946.95,3207.69,349.45,320.97,5.88,0000 0000 0000 0000 000000
2014-03-19 01:54:05,0.18,1.27,0.00,24.15,29.10,31.93,6.12,31.96,1012.68,2033.99,2971.12,2946.45,3207.27,350.32,321.76,5.88,0000 0000 0000 0000 000000
2014-03-19 01:55:05,0.24,1.27,0.00,24.15,29.10,31.90,5.97,31.96,1012.67,2033.99,2970.63,2946.16,3207.09,350.40,321.46,5.89,0000 0000 0000 0000 000000
2014-03-19 01:56:05,0.16,1.27,0.00,24.15,29.10,31.92,5.90,31.92,1012.61,2033.99,2970.24,2946.03,3206.78,349.32,321.18,5.89,0000 0000 0000 0000 000000
2014-03-19 01:57:05,0.14,1.27,0.00,24.15,29.10,31.90,6.03,32.04,1012.44,2033.99,2970.05,2945.72,3206.34,350.96,322.28,5.90,0000 0000 0000 0000 000000
2014-03-19 01:58:05,0.16,1.27,0.00,24.15,29.10,31.92,6.07,32.08,1012.49,2033.99,2969.59,2945.31,3206.12,349.73,321.44,5.91,0000 0000 0000 0000 000000
2014-03-19 01:59:06,0.21,1.27,0.00,24.15,29.10,31.95,5.97,31.92,1012.38,2033.99,2969.21,2945.11,3205.98,349.97,321.34,5.91,0000 0000 0000 0000 000000
2014-03-19 02:00:06,0.11,1.28,0.00,24.15,29.10,31.90,5.99,32.00,1012.41,2033.99,2968.83,2944.95,3205.52,350.46,321.81,5.92,0000 0000 0000 0000 000000
2014-03-19 02:01:06,0.20,1.28,0.00,24.17,29.10,31.92,5.98,31.83,1012.32,2033.99,2968.35,2944.65,3205.20,350.03,321.48,5.92,0000 0000 0000 0000 000000
2014-03-19 02:02:06,0.18,1.28,0.00,24.17,29.10,31.90,6.05,32.00,1012.23,2033.99,2968.11,2944.26,3205.03,350.22,321.25,5.93,0000 0000 0000 0000 000000
2014-03-19 02:03:06,0.14,1.28,0.00,24.17,29.10,31.88,6.03,32.00,1012.24,2033.99,2967.69,2944.09,3204.54,349.81,321.11,5.94,0000 0000 0000 0000 000000
2014-03-19 02:04:06,0.20,1.28,0.00,24.18,29.10,31.88,5.88,31.83,1012.24,2033.99,2967.26,2943.95,3204.19,349.22,320.30,5.94,0000 0000 0000 0000 000000
2014-03-19 02:05:07,0.13,1.28,0.00,24.19,29.10,31.86,6.14,32.08,1012.24,2033.99,2966.95,2943.47,3204.06,350.53,321.76,5.95,0000 0000 0000 0000 000000
2014-03-19 02:06:07,0.20,1.28,0.00,24.20,29.10,31.93,5.94,31.92,1012.22,2033.99,2966.42,2943.18,3203.72,349.85,321.13,5.95,0000 0000 0000 0000 000000
2014-03-19 02:07:07,0.21,1.28,0.00,24.20,29.10,31.93,5.97,31.46,1012.24,2033.99,2966.15,2943.06,3203.29,350.15,321.40,5.96,0000 0000 0000 0000 000000
2014-03-19 02:08:07,0.11,1.28,0.00,24.20,29.10,31.94,5.93,31.96,1012.22,2033.99,2965.79,2942.83,3203.11,349.89,321.12,5.96,0000 0000 0000 0000 000000
2014-03-19 02:09:08,0.16,1.28,0.00,24.21,29.11,31.93,5.79,32.04,1012.24,2033.99,2965.32,2942.40,3202.96,348.86,320.32,5.97,0000 0000 0000 0000 000000
2014-03-19 02:10:08,0.19,1.29,0.00,24.21,29.11,31.91,5.83,32.25,1012.23,2033.99,2965.10,2942.15,3202.47,349.17,320.64,5.98,0000 0000 0000 0000 000000
2014-03-19 02:11:08,0.16,1.29,0.00,24.20,29.12,31.88,6.14,32.21,1012.22,2034.00,2964.69,2942.04,3202.17,351.24,322.49,5.98,0000 0000 0000 0000 000000
2014-03-19 02:12:08,0.14,1.29,0.00,24.20,29.12,31.91,5.79,32.21,1012.20,2034.00,2964.27,2941.73,3202.02,349.47,321.51,5.99,0000 0000 0000 0000 000000
2014-03-19 02:13:08,0.18,1.29,0.00,24.20,29.12,31.90,5.89,32.25,1012.11,2034.00,2963.98,2941.28,3201.58,349.78,321.04,5.99,0000 0000 0000 0000 000000
2014-03-19 02:14:09,0.20,1.29,0.00,24.19,29.12,31.92,5.88,32.29,1011.90,2034.00,2963.45,2941.10,3201.21,348.63,319.93,6.00,0000 0000 0000 0000 000000
2014-03-19 02:15:09,0.18,1.29,0.00,24.18,29.12,31.94,5.98,32.25,1011.80,2034.00,2963.16,2940.97,3201.07,350.63,321.72,6.01,0000 0000 0000 0000 000000
2014-03-19 02:16:09,0.09,1.29,0.00,24.18,29.12,31.95,6.07,32.33,1011.74,2034.00,2962.83,2940.58,3200.79,348.99,320.20,6.01,0000 0000 0000 0000 000000
2014-03-19 02:17:09,0.20,1.29,0.00,24.19,29.12,31.95,5.91,32.04,1011.73,2034.00,2962.34,2940.22,3200.32,350.39,321.48,6.02,0000 0000 0000 0000 000000
2014-03-19 02:18:10,0.23,1.29,0.00,24.19,29.12,31.95,5.92,32.54,1011.74,2034.00,2962.07,2940.06,3200.10,349.87,321.00,6.02,0000 0000 0000 0000 000000
2014-03-19 02:19:10,0.10,1.29,0.00,24.19,29.12,31.96,6.03,32.42,1011.74,2034.00,2961.56,2939.74,3199.75,350.16,321.27,6.03,0000 0000 0000 0000 000000
2014-03-19 02:20:10,0.24,1.30,0.00,24.18,29.12,31.94,5.84,32.25,1011.73,2034.00,2961.20,2939.29,3199.29,350.28,321.39,6.03,0000 0000 0000 0000 000000
2014-03-19 02:21:10,0.22,1.30,0.00,24.19,29.12,31.96,5.91,32.54,1011.73,2034.00,2960.92,2939.10,3199.10,349.89,320.89,6.04,0000 0000 0000 0000 000000
2014-03-19 02:22:11,0.11,1.30,0.00,24.19,29.12,31.90,6.07,32.42,1011.73,2034.00,2960.45,2939.00,3199.01,350.68,321.77,6.05,0000 0000 0000 0000 000000
2014-03-19 02:23:11,0.10,1.30,0.00,24.19,29.12,31.96,5.91,32.38,1011.73,2034.00,2960.15,2938.58,3198.61,349.30,320.59,6.05,0000 0000 0000 0000 000000
2014-03-19 02:24:11,0.23,1.30,0.00,24.20,29.13,31.94,5.92,32.29,1011.73,2034.00,2959.72,2938.22,3198.22,349.59,320.91,6.06,0000 0000 0000 0000 000000
2014-03-19 02:25:12,0.20,1.30,0.00,24.20,29.13,31.94,6.00,32.25,1011.73,2034.00,2959.28,2938.08,3198.07,350.07,321.18,6.06,0000 0000 0000 0000 000000
2014-03-19 02:26:12,0.11,1.30,0.00,24.19,29.14,31.97,6.01,32.17,1011.73,2034.00,2959.09,2937.95,3197.86,350.33,321.43,6.07,0000 0000 0000 0000 000000
2014-03-19 02:27:12,0.08,1.30,0.00,24.20,29.14,31.97,5.95,32.29,1011.73,2034.00,2958.70,2937.54,3197.37,350.38,321.18,6.08,0000 0000 0000 0000 000000
2014-03-19 02:28:13,0.26,1.30,0.00,24.20,29.15,31.99,6.02,32.46,1011.73,2034.00,2958.27,2937.20,3197.13,350.47,321.88,6.08,0000 0000 0000 0000 000000
2014-03-19 02:29:13,0.18,1.30,0.00,24.20,29.15,31.98,5.93,32.46,1011.73,2034.00,2957.98,2937.07,3196.87,350.60,321.32,6.09,0000 0000 0000 0000 000000
2014-03-19 02:30:13,0.11,1.31,0.00,24.20,29.15,31.97,5.95,32.33,1011.73,2033.99,2957.45,2936.83,3196.40,349.96,321.08,6.09,0000 0000 0000 0000 000000
2014-03-19 02:31:13,0.22,1.31,0.00,24.20,29.15,31.99,5.94,32.38,1011.73,2033.99,2957.12,2936.34,3196.14,349.30,320.47,6.10,0000 0000 0000 0000 000000
2014-03-19 02:32:14,0.20,1.31,0.00,24.20,29.15,31.98,6.11,32.38,1011.73,2033.99,2956.61,2936.11,3195.90,350.34,321.43,6.10,0000 0000 0000 0000 000000
2014-03-19 02:33:14,0.16,1.31,0.00,24.20,29.15,32.00,5.88,32.17,1011.73,2033.99,2956.23,2936.01,3195.46,349.56,320.71,6.11,0000 0000 0000 0000 000000
2014-03-19 02:34:14,0.15,1.31,0.00,24.20,29.15,31.95,6.11,32.42,1011.73,2033.99,2956.06,2935.72,3195.17,351.30,322.30,6.12,0000 0000 0000 0000 000000
2014-03-19 02:35:14,0.15,1.31,0.00,24.19,29.15,31.95,5.79,32.29,1011.73,2033.99,2955.66,2935.28,3195.03,349.71,320.85,6.12,0000 0000 0000 0000 000000
2014-03-19 02:36:14,0.18,1.31,0.00,24.18,29.15,31.98,5.96,32.17,1011.73,2033.99,2955.24,2935.10,3194.68,350.25,321.36,6.13,0000 0000 0000 0000 000000
2014-03-19 02:37:15,0.15,1.31,0.00,24.17,29.15,32.01,6.05,32.17,1011.73,2033.99,2955.05,2935.00,3194.27,350.91,321.51,6.13,0000 0000 0000 0000 000000